User: anonymous   Login
Location: Unspecified
(0.0000°N, 0.0000°E)
Time: 19:17:13
(UTC+00:00)
Language:

STARLINK-34066 - Orbit

View from above orbital plane
View from above orbital plane
View from above satellite
View from above satellite

Ground track
Ground track

The orbit is defined by the following mean orbital elements,

1 63909U          26145.37057385 +.00000000 +00000-0 +59882-3 0 00001
2 63909  42.9996 103.2934 0001176 269.0357  91.0360 15.27594675    07
Epoch (UTC): 25 May 2026 08:53:37
Eccentricity: 0.0001176
inclination: 42.9996°
perigee height: 482 km
apogee height: 484 km
right ascension of ascending node: 103.2934°
argument of perigee: 269.0357°
revolutions per day: 15.27594675
mean anomaly at epoch: 91.0360°

The dashed part of the orbit path shows where the satellite is in the earth's shadow,  

DLR